| time (UTC) | temp F | wind direction | speed MPH | gust MPH | rain 1hr in | rain 24hr in | rain mn in | humidity % | barometer mb |
| 20260906140749 | 69 | 229 | 0.0 | 4.0 | 0.00 | 0.00 | 0.00 | 95 | 1018.2 |
| 20260906135809 | 69 | 171 | 0.0 | 4.0 | 0.00 | 0.00 | 0.00 | 95 | 1018.1 |
| 20260906134740 | 69 | 162 | 0.0 | 5.0 | 0.00 | 0.00 | 0.00 | 95 | 1018.1 |
| 20260906134503 | 68 | 133 | 0.0 | 7.0 | 0.00 | 0.00 | 0.00 | 96 | 1018.3 |
| 20260906133111 | 68 | 214 | 1.0 | 4.0 | 0.00 | 0.00 | 0.00 | 96 | 1018.2 |
| 20260906132628 | 68 | 66 | 0.0 | 7.0 | 0.00 | 0.00 | 0.00 | 96 | 1018.2 |
| 20260906131555 | 68 | 126 | 0.0 | 7.0 | 0.00 | 0.00 | 0.00 | 96 | 1018.1 |
| 20260906131502 | 68 | 123 | 2.0 | 8.0 | 0.00 | 0.00 | 0.00 | 96 | 1018.1 |
| 20260906130602 | 68 | 137 | 1.0 | 5.0 | 0.00 | 0.00 | 0.00 | 96 | 1018.0 |
| 20260906130007 | 67 | 121 | 1.0 | 5.0 | 0.00 | 0.00 | 0.00 | 96 | 1018.2 |
| 20260906125554 | 68 | 115 | 0.0 | 4.0 | 0.00 | 0.00 | 0.00 | 96 | 1018.1 |
| 20260906124606 | 67 | 140 | 0.0 | 3.0 | 0.00 | 0.00 | 0.00 | 96 | 1017.9 |
| 20260906123002 | 67 | 132 | 0.0 | 2.0 | 0.00 | 0.00 | 0.00 | 96 | 1017.8 |
| 20260906122338 | 68 | 132 | 0.0 | 0.0 | 0.00 | 0.00 | 0.00 | 96 | 1017.8 |
| 20260906121615 | 67 | 167 | 0.0 | 3.0 | 0.00 | 0.00 | 0.00 | 96 | 1017.7 |
| 20260906121345 | 68 | 192 | 0.0 | 3.0 | 0.00 | 0.00 | 0.00 | 96 | 1017.6 |
| 20260906120323 | 68 | 127 | 0.0 | 3.0 | 0.00 | 0.00 | 0.00 | 96 | 1017.6 |
| 20260906120120 | 67 | 132 | 1.0 | 5.0 | 0.00 | 0.00 | 0.00 | 96 | 1017.7 |
| 20260906115256 | 68 | 127 | 1.0 | 4.0 | 0.00 | 0.00 | 0.00 | 96 | 1017.6 |
| 20260906114233 | 68 | 121 | 0.0 | 2.0 | 0.00 | 0.00 | 0.00 | 95 | 1017.4 |
| 20260906113223 | 68 | 128 | 0.0 | 3.0 | 0.00 | 0.00 | 0.00 | 95 | 1017.4 |
| 20260906113004 | 67 | 128 | 1.0 | 4.0 | 0.00 | 0.00 | 0.00 | 95 | 1017.4 |
| 20260906111603 | 68 | 107 | 0.0 | 4.0 | 0.00 | 0.00 | 0.00 | 95 | 1017.5 |
| 20260906111034 | 68 | 117 | 0.0 | 3.0 | 0.00 | 0.00 | 0.00 | 95 | 1017.4 |
| 20260906110103 | 68 | 143 | 0.0 | 7.0 | 0.00 | 0.00 | 0.00 | 95 | 1017.4 |
| 20260906110005 | 68 | 143 | 0.0 | 6.0 | 0.00 | 0.00 | 0.00 | 95 | 1017.3 |
| 20260906104955 | 68 | 109 | 0.0 | 5.0 | 0.00 | 0.00 | 0.00 | 95 | 1017.0 |
| 20260906104504 | 68 | 135 | 2.0 | 5.0 | 0.00 | 0.00 | 0.00 | 95 | 1017.0 |
| 20260906103932 | 68 | 130 | 0.0 | 3.0 | 0.00 | 0.00 | 0.00 | 95 | 1016.8 |
| 20260906103109 | 68 | 132 | 1.0 | 4.0 | 0.00 | 0.00 | 0.00 | 95 | 1016.7 |
| 20260906101832 | 68 | 137 | 0.0 | 2.0 | 0.00 | 0.00 | 0.00 | 95 | 1016.6 |
| 20260906101503 | 68 | 133 | 0.0 | 3.0 | 0.00 | 0.00 | 0.00 | 95 | 1016.6 |
| 20260906100809 | 68 | 132 | 0.0 | 3.0 | 0.00 | 0.00 | 0.00 | 95 | 1016.6 |
| 20260906100004 | 68 | 136 | 1.0 | 5.0 | 0.00 | 0.00 | 0.00 | 94 | 1016.5 |
| 20260906095820 | 69 | 119 | 1.0 | 5.0 | 0.00 | 0.00 | 0.00 | 94 | 1016.4 |
| 20260906094828 | 69 | 127 | 0.0 | 5.0 | 0.00 | 0.00 | 0.00 | 94 | 1016.4 |
| 20260906094607 | 68 | 138 | 0.0 | 5.0 | 0.00 | 0.00 | 0.00 | 94 | 1016.4 |
| 20260906093808 | 69 | 122 | 0.0 | 5.0 | 0.00 | 0.00 | 0.00 | 94 | 1016.3 |
| 20260906093004 | 68 | 123 | 1.0 | 5.0 | 0.00 | 0.00 | 0.00 | 94 | 1016.2 |
| 20260906091636 | 69 | 128 | 1.0 | 9.0 | 0.00 | 0.00 | 0.00 | 94 | 1016.0 |
| 20260906091503 | 68 | 127 | 2.0 | 7.0 | 0.00 | 0.00 | 0.00 | 94 | 1016.0 |
| 20260906090640 | 69 | 100 | 1.0 | 10.0 | 0.00 | 0.00 | 0.00 | 94 | 1015.7 |
| 20260906090004 | 69 | 136 | 1.0 | 6.0 | 0.00 | 0.00 | 0.00 | 94 | 1015.8 |
| 20260906084534 | 69 | 140 | 2.0 | 9.0 | 0.00 | 0.00 | 0.00 | 93 | 1015.7 |
| 20260906084507 | 69 | 130 | 3.0 | 10.0 | 0.00 | 0.00 | 0.00 | 93 | 1015.8 |
| 20260906083559 | 69 | 134 | 0.0 | 1.0 | 0.00 | 0.00 | 0.00 | 93 | 1015.9 |
| 20260906083105 | 69 | 148 | 1.0 | 4.0 | 0.00 | 0.00 | 0.00 | 93 | 1016.1 |
| 20260906081605 | 69 | 119 | 1.0 | 5.0 | 0.00 | 0.00 | 0.00 | 93 | 1016.3 |
| 20260906081401 | 70 | 117 | 0.0 | 6.0 | 0.00 | 0.00 | 0.00 | 93 | 1016.3 |
| 20260906080328 | 70 | 149 | 1.0 | 6.0 | 0.00 | 0.00 | 0.00 | 93 | 1016.2 |
| 20260906080103 | 69 | 144 | 2.0 | 7.0 | 0.00 | 0.00 | 0.00 | 93 | 1016.2 |
| 20260906075312 | 70 | 138 | 1.0 | 3.0 | 0.00 | 0.00 | 0.00 | 93 | 1016.3 |
| 20260906074505 | 69 | 142 | 1.0 | 5.0 | 0.00 | 0.00 | 0.00 | 93 | 1016.4 |
| 20260906074243 | 70 | 139 | 1.0 | 4.0 | 0.00 | 0.00 | 0.00 | 93 | 1016.2 |
| 20260906073226 | 70 | 134 | 1.0 | 5.0 | 0.00 | 0.00 | 0.00 | 93 | 1016.2 |
| 20260906073103 | 69 | 154 | 2.0 | 5.0 | 0.00 | 0.00 | 0.00 | 93 | 1016.4 |
| 20260906072204 | 70 | 125 | 0.0 | 5.0 | 0.00 | 0.00 | 0.00 | 93 | 1016.4 |
| 20260906071605 | 69 | 121 | 0.0 | 3.0 | 0.00 | 0.00 | 0.00 | 93 | 1016.4 |
| 20260906071147 | 70 | 148 | 0.0 | 3.0 | 0.00 | 0.00 | 0.00 | 93 | 1016.3 |
| 20260906070139 | 70 | 133 | 0.0 | 5.0 | 0.00 | 0.00 | 0.00 | 92 | 1016.4 |
| 20260906065204 | 70 | 120 | 1.0 | 5.0 | 0.00 | 0.00 | 0.00 | 92 | 1016.4 |
| 20260906064504 | 69 | 113 | 1.0 | 4.0 | 0.00 | 0.00 | 0.00 | 92 | 1016.5 |
| 20260906064228 | 70 | 115 | 1.0 | 3.0 | 0.00 | 0.00 | 0.00 | 92 | 1016.4 |
| 20260906063230 | 70 | 136 | 1.0 | 4.0 | 0.00 | 0.00 | 0.00 | 91 | 1016.6 |
| 20260906063103 | 69 | 126 | 1.0 | 6.0 | 0.00 | 0.00 | 0.00 | 91 | 1016.6 |
| 20260906062210 | 70 | 140 | 0.0 | 4.0 | 0.00 | 0.00 | 0.00 | 91 | 1016.5 |
| 20260906061603 | 70 | 105 | 0.0 | 3.0 | 0.00 | 0.00 | 0.00 | 91 | 1016.6 |
| 20260906061154 | 70 | 121 | 0.0 | 4.0 | 0.00 | 0.00 | 0.00 | 91 | 1016.6 |
| 20260906060203 | 70 | 140 | 0.0 | 3.0 | 0.00 | 0.00 | 0.00 | 90 | 1016.5 |
| 20260906060135 | 70 | 127 | 0.0 | 3.0 | 0.00 | 0.00 | 0.00 | 90 | 1016.6 |
| 20260906055144 | 71 | 101 | 0.0 | 3.0 | 0.00 | 0.00 | 0.00 | 90 | 1016.6 |
| 20260906054502 | 70 | 113 | 0.0 | 3.0 | 0.00 | 0.00 | 0.00 | 90 | 1016.7 |
| 20260906054151 | 71 | 92 | 0.0 | 2.0 | 0.00 | 0.00 | 0.00 | 90 | 1016.7 |
| 20260906053102 | 71 | 107 | 0.0 | 3.0 | 0.00 | 0.00 | 0.00 | 89 | 1016.6 |
| 20260906052058 | 72 | 111 | 0.0 | 1.0 | 0.00 | 0.00 | 0.00 | 89 | 1016.7 |
| 20260906051502 | 71 | 96 | 0.0 | 2.0 | 0.00 | 0.00 | 0.00 | 89 | 1016.7 |
| 20260906051042 | 72 | 77 | 0.0 | 1.0 | 0.00 | 0.00 | 0.00 | 89 | 1016.6 |
| 20260906050055 | 72 | 76 | 0.0 | 3.0 | 0.00 | 0.00 | 0.00 | 89 | 1016.6 |
| 20260906050002 | 72 | 94 | 0.0 | 2.0 | 0.00 | 0.00 | 0.00 | 89 | 1016.7 |
| 20260906045027 | 72 | 130 | 0.0 | 1.0 | 0.00 | 0.00 | 0.00 | 89 | 1016.5 |
| 20260906044602 | 72 | 89 | 0.0 | 2.0 | 0.00 | 0.00 | 0.00 | 89 | 1016.5 |
| 20260906044020 | 72 | 107 | 0.0 | 1.0 | 0.00 | 0.00 | 0.00 | 89 | 1016.4 |
| 20260906043002 | 72 | 100 | 0.0 | 3.0 | 0.00 | 0.00 | 0.00 | 89 | 1016.7 |
| 20260906042950 | 72 | 100 | 0.0 | 0.0 | 0.00 | 0.00 | 0.00 | 89 | 1016.6 |
| 20260906041926 | 72 | 80 | 0.0 | 1.0 | 0.00 | 0.00 | 0.00 | 89 | 1016.4 |
| 20260906041602 | 72 | 102 | 0.0 | 2.0 | 0.00 | 0.00 | 0.00 | 89 | 1016.5 |
| 20260906040854 | 72 | 114 | 0.0 | 0.0 | 0.00 | 0.00 | 0.00 | 89 | 1016.4 |
| 20260906040106 | 72 | 114 | 0.0 | 2.0 | 0.00 | 0.00 | 0.00 | 89 | 1016.4 |
| 20260906035902 | 73 | 113 | 0.0 | 0.0 | 0.00 | 0.00 | 0.00 | 89 | 1016.4 |
| 20260906034850 | 73 | 111 | 0.0 | 0.0 | 0.00 | 0.00 | 0.00 | 89 | 1016.5 |
| 20260906034503 | 72 | 109 | 0.0 | 1.0 | 0.00 | 0.00 | 0.00 | 89 | 1016.6 |
| 20260906033852 | 73 | 111 | 0.0 | 0.0 | 0.00 | 0.00 | 0.00 | 89 | 1016.6 |
| 20260906033106 | 72 | 113 | 0.0 | 2.0 | 0.00 | 0.00 | 0.00 | 89 | 1016.6 |
| 20260906032840 | 73 | 112 | 0.0 | 0.0 | 0.00 | 0.00 | 0.00 | 89 | 1016.6 |
| 20260906031825 | 73 | 112 | 0.0 | 0.0 | 0.00 | 0.00 | 0.00 | 89 | 1016.4 |
| 20260906031502 | 72 | 112 | 0.0 | 2.0 | 0.00 | 0.00 | 0.00 | 89 | 1016.5 |
| 20260906030843 | 73 | 103 | 0.0 | 0.0 | 0.00 | 0.00 | 0.00 | 89 | 1016.3 |
| 20260906030003 | 73 | 78 | 0.0 | 3.0 | 0.00 | 0.00 | 0.00 | 89 | 1016.4 |
| 20260906024719 | 73 | 138 | 0.0 | 1.0 | 0.00 | 0.00 | 0.00 | 89 | 1016.2 |
| 20260906024613 | 73 | 141 | 0.0 | 1.0 | 0.00 | 0.00 | 0.00 | 89 | 1016.3 |
| 20260906023657 | 73 | 142 | 0.0 | 0.0 | 0.00 | 0.00 | 0.00 | 89 | 1016.2 |
| 20260906023003 | 73 | 143 | 0.0 | 2.0 | 0.00 | 0.00 | 0.00 | 89 | 1016.0 |
| 20260906021606 | 73 | 144 | 0.0 | 2.0 | 0.00 | 0.00 | 0.00 | 88 | 1015.6 |
| 20260906021532 | 74 | 144 | 0.0 | 0.0 | 0.00 | 0.00 | 0.00 | 88 | 1015.6 |
| 20260906020536 | 74 | 150 | 0.0 | 2.0 | 0.00 | 0.00 | 0.00 | 88 | 1015.3 |
| 20260906015527 | 74 | 138 | 0.0 | 1.0 | 0.00 | 0.00 | 0.00 | 88 | 1015.2 |
| 20260906014541 | 74 | 136 | 0.0 | 1.0 | 0.00 | 0.00 | 0.00 | 88 | 1015.2 |
| 20260906014506 | 74 | 128 | 0.0 | 1.0 | 0.00 | 0.00 | 0.00 | 88 | 1015.2 |
| 20260906013546 | 74 | 134 | 0.0 | 0.0 | 0.00 | 0.00 | 0.00 | 88 | 1015.0 |
| 20260906013104 | 74 | 134 | 0.0 | 2.0 | 0.00 | 0.00 | 0.00 | 88 | 1015.0 |
| 20260906011503 | 74 | 126 | 0.0 | 2.0 | 0.00 | 0.00 | 0.00 | 87 | 1014.7 |
| 20260906011433 | 75 | 126 | 0.0 | 0.0 | 0.00 | 0.00 | 0.00 | 87 | 1014.6 |
| 20260906010143 | 74 | 132 | 0.0 | 2.0 | 0.00 | 0.00 | 0.00 | 87 | 1014.7 |
| 20260906005258 | 75 | 136 | 0.0 | 1.0 | 0.00 | 0.00 | 0.00 | 86 | 1014.5 |
| 20260906004617 | 74 | 151 | 0.0 | 3.0 | 0.00 | 0.00 | 0.00 | 86 | 1014.5 |
| 20260906004236 | 75 | 129 | 0.0 | 2.0 | 0.00 | 0.00 | 0.00 | 86 | 1014.3 |
| 20260906003004 | 75 | 115 | 0.0 | 2.0 | 0.00 | 0.00 | 0.00 | 85 | 1014.4 |
| 20260906002117 | 76 | 80 | 0.0 | 1.0 | 0.00 | 0.00 | 0.00 | 85 | 1014.3 |
| 20260906001606 | 76 | 86 | 0.0 | 2.0 | 0.00 | 0.00 | 0.00 | 84 | 1014.5 |
| 20260905235956 | 76 | 57 | 0.0 | 2.0 | 0.00 | 0.00 | 0.00 | 84 | 1014.3 |
| 20260905234948 | 76 | 142 | 0.0 | 1.0 | 0.00 | 0.00 | 0.00 | 84 | 1014.3 |
| 20260905234505 | 76 | 140 | 0.0 | 3.0 | 0.00 | 0.00 | 0.00 | 84 | 1014.3 |
| 20260905233959 | 76 | 121 | 0.0 | 3.0 | 0.00 | 0.00 | 0.00 | 84 | 1014.2 |
| 20260905233102 | 76 | 96 | 1.0 | 3.0 | 0.00 | 0.00 | 0.00 | 83 | 1014.2 |
| 20260905233022 | 77 | 67 | 0.0 | 2.0 | 0.00 | 0.00 | 0.00 | 83 | 1014.2 |
| 20260905232039 | 77 | 111 | 0.0 | 1.0 | 0.00 | 0.00 | 0.00 | 83 | 1014.1 |
| 20260905231508 | 76 | 97 | 0.0 | 4.0 | 0.00 | 0.00 | 0.00 | 83 | 1014.1 |
| 20260905231102 | 77 | 175 | 1.0 | 3.0 | 0.00 | 0.00 | 0.00 | 83 | 1014.0 |
| 20260905230047 | 77 | 129 | 0.0 | 6.0 | 0.00 | 0.00 | 0.00 | 82 | 1013.9 |
| 20260905230002 | 76 | 126 | 1.0 | 5.0 | 0.00 | 0.00 | 0.00 | 82 | 1013.9 |
| 20260905225025 | 77 | 86 | 1.0 | 6.0 | 0.00 | 0.00 | 0.00 | 82 | 1013.6 |
| 20260905224604 | 76 | 53 | 2.0 | 7.0 | 0.00 | 0.00 | 0.00 | 82 | 1013.6 |
| 20260905223950 | 77 | 80 | 1.0 | 5.0 | 0.00 | 0.00 | 0.00 | 83 | 1013.6 |
| 20260905223005 | 76 | 68 | 2.0 | 6.0 | 0.00 | 0.00 | 0.00 | 83 | 1013.6 |
| 20260905221833 | 77 | 71 | 1.0 | 7.0 | 0.00 | 0.00 | 0.00 | 83 | 1013.6 |
| 20260905221603 | 77 | 50 | 3.0 | 8.0 | 0.00 | 0.00 | 0.00 | 83 | 1013.6 |
| 20260905220857 | 78 | 136 | 1.0 | 4.0 | 0.00 | 0.00 | 0.00 | 83 | 1013.5 |
| 20260905220103 | 77 | 91 | 2.0 | 7.0 | 0.00 | 0.00 | 0.00 | 83 | 1013.5 |
| 20260905215900 | 78 | 61 | 1.0 | 7.0 | 0.00 | 0.00 | 0.00 | 83 | 1013.5 |
| 20260905214836 | 77 | 74 | 1.0 | 8.0 | 0.00 | 0.00 | 0.00 | 82 | 1013.4 |
| 20260905214509 | 77 | 100 | 1.0 | 9.0 | 0.00 | 0.00 | 0.00 | 82 | 1013.5 |
| 20260905213809 | 78 | 78 | 1.0 | 8.0 | 0.00 | 0.00 | 0.00 | 82 | 1013.6 |
| 20260905213103 | 77 | 20 | 3.0 | 9.0 | 0.00 | 0.00 | 0.00 | 81 | 1013.9 |
| 20260905211657 | 78 | 18 | 1.0 | 6.0 | 0.00 | 0.00 | 0.00 | 81 | 1013.9 |
| 20260905210710 | 79 | 31 | 1.0 | 6.0 | 0.00 | 0.00 | 0.00 | 81 | 1013.8 |
| 20260905210003 | 79 | 57 | 1.0 | 4.0 | 0.00 | 0.00 | 0.00 | 81 | 1014.1 |
| 20260905204614 | 79 | 71 | 1.0 | 6.0 | 0.00 | 0.00 | 0.00 | 81 | 1014.1 |
| 20260905204502 | 79 | 87 | 1.0 | 6.0 | 0.00 | 0.00 | 0.00 | 81 | 1014.2 |
| 20260905203547 | 79 | 61 | 1.0 | 6.0 | 0.00 | 0.00 | 0.00 | 81 | 1014.4 |
| 20260905203103 | 79 | 92 | 1.0 | 6.0 | 0.00 | 0.00 | 0.00 | 81 | 1014.5 |
| 20260905202605 | 79 | 113 | 1.0 | 4.0 | 0.00 | 0.00 | 0.00 | 82 | 1014.4 |
| 20260905201503 | 78 | 111 | 1.0 | 5.0 | 0.00 | 0.00 | 0.00 | 82 | 1014.7 |
| 20260905200003 | 78 | 107 | 0.0 | 4.0 | 0.00 | 0.00 | 0.00 | 83 | 1014.9 |
| 20260905195334 | 78 | 100 | 0.0 | 0.0 | 0.00 | 0.00 | 0.00 | 83 | 1014.8 |
| 20260905194603 | 77 | 112 | 0.0 | 3.0 | 0.00 | 0.00 | 0.00 | 83 | 1015.0 |
| 20260905194338 | 78 | 112 | 0.0 | 0.0 | 0.00 | 0.00 | 0.00 | 83 | 1015.0 |
| 20260905193358 | 78 | 129 | 0.0 | 3.0 | 0.00 | 0.00 | 0.00 | 84 | 1015.1 |
| 20260905193013 | 77 | 123 | 0.0 | 4.0 | 0.00 | 0.00 | 0.00 | 84 | 1015.2 |
| 20260905191602 | 77 | 197 | 0.0 | 3.0 | 0.00 | 0.00 | 0.00 | 84 | 1015.2 |
| 20260905191250 | 77 | 170 | 0.0 | 3.0 | 0.00 | 0.00 | 0.00 | 85 | 1015.3 |
| 20260905190253 | 77 | 140 | 0.0 | 5.0 | 0.00 | 0.00 | 0.00 | 85 | 1015.2 |
| 20260905185227 | 77 | 138 | 1.0 | 5.0 | 0.00 | 0.00 | 0.00 | 86 | 1015.2 |
| 20260905184503 | 76 | 136 | 2.0 | 6.0 | 0.00 | 0.00 | 0.00 | 87 | 1015.2 |
| 20260905183105 | 76 | 98 | 0.0 | 4.0 | 0.00 | 0.00 | 0.00 | 88 | 1015.3 |
| 20260905183103 | 75 | 98 | 1.0 | 5.0 | 0.00 | 0.00 | 0.00 | 88 | 1015.4 |
| 20260905182041 | 76 | 103 | 0.0 | 0.0 | 0.00 | 0.00 | 0.00 | 88 | 1015.6 |
| 20260905181502 | 75 | 103 | 0.0 | 2.0 | 0.00 | 0.00 | 0.00 | 88 | 1015.7 |
| 20260905181040 | 75 | 103 | 0.0 | 1.0 | 0.00 | 0.00 | 0.00 | 88 | 1015.7 |
| 20260905180043 | 75 | 134 | 0.0 | 2.0 | 0.00 | 0.00 | 0.00 | 89 | 1015.8 |
| 20260905175107 | 75 | 113 | 0.0 | 1.0 | 0.00 | 0.00 | 0.00 | 89 | 1015.9 |
| 20260905174502 | 75 | 134 | 0.0 | 1.0 | 0.00 | 0.00 | 0.00 | 90 | 1016.0 |
| 20260905174034 | 75 | 134 | 0.0 | 0.0 | 0.00 | 0.00 | 0.00 | 90 | 1015.7 |
| 20260905173103 | 74 | 136 | 1.0 | 4.0 | 0.00 | 0.00 | 0.00 | 90 | 1015.9 |
| 20260905173034 | 75 | 130 | 0.0 | 3.0 | 0.00 | 0.00 | 0.00 | 90 | 1015.8 |
| 20260905172015 | 74 | 98 | 0.0 | 0.0 | 0.00 | 0.00 | 0.00 | 90 | 1016.1 |
| 20260905171504 | 74 | 98 | 0.0 | 1.0 | 0.00 | 0.00 | 0.00 | 91 | 1016.3 |
| 20260905170957 | 74 | 97 | 0.0 | 0.0 | 0.00 | 0.00 | 0.00 | 91 | 1016.1 |
| 20260905170004 | 74 | 92 | 0.0 | 0.0 | 0.00 | 0.00 | 0.00 | 91 | 1016.0 |
| 20260905170002 | 74 | 92 | 0.0 | 3.0 | 0.00 | 0.00 | 0.00 | 91 | 1016.1 |
| 20260905165028 | 74 | 123 | 0.0 | 3.0 | 0.00 | 0.00 | 0.00 | 91 | 1015.9 |
| 20260905164606 | 73 | 76 | 0.0 | 3.0 | 0.00 | 0.00 | 0.00 | 91 | 1015.8 |
| 20260905164016 | 74 | 112 | 1.0 | 3.0 | 0.00 | 0.00 | 0.00 | 92 | 1015.8 |
| 20260905163103 | 73 | 136 | 1.0 | 3.0 | 0.00 | 0.00 | 0.00 | 92 | 1015.6 |
| 20260905163000 | 73 | 131 | 0.0 | 2.0 | 0.00 | 0.00 | 0.00 | 92 | 1015.7 |
| 20260905161933 | 73 | 64 | 0.0 | 1.0 | 0.00 | 0.00 | 0.00 | 92 | 1015.6 |
| 20260905161503 | 73 | 85 | 0.0 | 2.0 | 0.00 | 0.00 | 0.00 | 92 | 1015.8 |
| 20260905160951 | 73 | 87 | 0.0 | 4.0 | 0.00 | 0.00 | 0.00 | 92 | 1015.8 |
| 20260905160002 | 73 | 98 | 0.0 | 3.0 | 0.00 | 0.00 | 0.00 | 93 | 1015.8 |
| 20260905155917 | 73 | 111 | 0.0 | 2.0 | 0.00 | 0.00 | 0.00 | 93 | 1015.8 |
| 20260905154926 | 73 | 323 | 0.0 | 2.0 | 0.00 | 0.00 | 0.00 | 93 | 1015.6 |
| 20260905154502 | 73 | 136 | 1.0 | 5.0 | 0.00 | 0.00 | 0.00 | 94 | 1015.6 |
| 20260905153851 | 73 | 24 | 0.0 | 3.0 | 0.00 | 0.00 | 0.00 | 94 | 1015.5 |
| 20260905153104 | 72 | 61 | 1.0 | 4.0 | 0.00 | 0.00 | 0.00 | 94 | 1015.5 |
| 20260905152820 | 73 | 112 | 0.0 | 3.0 | 0.00 | 0.00 | 0.00 | 94 | 1015.4 |
| 20260905151820 | 72 | 69 | 0.0 | 2.0 | 0.00 | 0.00 | 0.00 | 95 | 1015.4 |
| 20260905151506 | 72 | 71 | 1.0 | 3.0 | 0.00 | 0.00 | 0.00 | 95 | 1015.6 |
| 20260905150826 | 72 | 31 | 0.0 | 2.0 | 0.00 | 0.00 | 0.00 | 96 | 1015.4 |
| 20260905150002 | 71 | 50 | 0.0 | 3.0 | 0.00 | 0.00 | 0.00 | 96 | 1015.1 |
| 20260905145820 | 72 | 50 | 0.0 | 2.0 | 0.00 | 0.00 | 0.00 | 96 | 1015.1 |
| 20260905144601 | 71 | 67 | 0.0 | 2.0 | 0.00 | 0.00 | 0.00 | 96 | 1015.2 |
| 20260905143711 | 71 | 67 | 0.0 | 2.0 | 0.00 | 0.00 | 0.00 | 97 | 1015.3 |
| 20260905143103 | 71 | 92 | 0.0 | 3.0 | 0.00 | 0.00 | 0.00 | 97 | 1015.1 |
| 20260905142718 | 71 | 99 | 0.0 | 2.0 | 0.00 | 0.00 | 0.00 | 97 | 1015.0 |
| 20260905141736 | 71 | 103 | 0.0 | 3.0 | 0.00 | 0.00 | 0.00 | 97 | 1015.0 |
| 20260905141504 | 70 | 115 | 0.0 | 3.0 | 0.00 | 0.00 | 0.00 | 97 | 1015.0 |